Temp
9 9 9 9 9 9 9 9 9 9 9 9 9 9 9 9 9 9 9 9 9 9 9 9 9 9 9 9 9 9 9 9 9 9 9 9 9 9 9 9 9 9
9 9 9 9 9 9 10 9 9 9 9 9 9 9 9 9 9 9 10 10 10 9 9 9 9 9 9 9 9 9 9 9 9 9 9 9 9 9 9 9 9 9
9 10 10 9 9 9 10 10 9 9 9 9 9 9 9 9 9 9 10 10 10 9 9 9 9 9 9 9 9 9 9 9 9 9 9 9 9 9 9 10 10 10
9 10 10 10 9 9 9 10 10 9 9 9 9 9 9 9 9 10 10 10 9 9 9 9 9 9 9 9 9 9 9 9 9 9 9 9 9 9 10 10 10 10
10 10 10 10 9 9 9 9 10 10 9 9 9 9 9 10 10 10 10 10 10 9 9 9 9 10 10 9 10 9 9 9 9 9 9 9 9 9 10 10 10 10
10 10 10 10 9 9 9 9 10 10 10 9 9 9 9 10 10 10 10 10 10 9 9 10 10 10 9 9 10 10 9 9 9 9 9 9 9 9 9 10 10 9
10 10 10 10 10 9 9 9 9 10 10 9 9 9 9 10 10 10 10 10 10 10 9 10 10 10 9 9 10 10 9 9 9 9 9 9 9 9 9 10 10 10
9 9 10 10 10 9 9 9 9 9 10 10 10 10 9 9 10 10 10 10 10 10 10 10 10 10 10 10 10 10 9 9 9 9 9 9 9 9 9 10 10 10
9 9 9 9 10 10 9 9 9 9 9 9 9 10 10 10 9 9 10 10 10 10 10 10 10 10 10 10 10 10 10 9 9 9 9 9 9 9 9 10 10 10
9 9 9 9 9 9 9 9 9 9 9 9 9 9 10 10 10 10 10 10 10 10 10 10 10 10 10 10 10 10 10 9 9 9 9 9 9 9 9 9 10 9
9 9 9 9 9 9 9 9 9 9 9 9 9 9 9 10 10 10 10 10 10 10 10 10 10 10 10 10 10 10 10 10 9 9 9 9 9 9 9 9 9 9
9 9 9 9 9 9 9 9 9 9 9 9 9 9 9 10 10 10 10 10 10 10 10 10 10 10 9 9 10 10 10 10 10 10 10 9 9 9 9 9 9 9
10 9 9 9 9 9 9 9 10 10 10 10 9 9 9 10 10 10 10 10 10 10 10 10 10 10 9 9 9 10 10 10 10 10 10 10 9 9 9 9 9 9
10 10 10 9 9 9 9 10 10 10 10 10 10 10 9 9 10 10 10 10 10 10 10 10 10 10 9 9 9 10 10 10 10 10 10 10 10 9 9 9 9 9
10 10 10 10 10 9 9 9 10 10 10 10 10 10 10 9 9 10 10 10 10 10 10 10 10 10 10 10 10 10 10 10 10 10 10 10 9 9 9 9 9 9
10 10 10 10 10 10 9 9 9 9 9 9 10 10 10 10 9 9 10 10 10 10 10 10 10 10 10 10 10 10 10 10 10 10 10 10 9 9 9 9 9 9
10 10 10 10 10 10 9 9 9 9 9 9 9 9 9 9 10 10 10 10 10 10 10 10 10 10 10 10 10 10 10 10 10 10 10 10 10 10 9 9 9 9
10 10 10 10 10 10 10 9 9 9 9 9 9 9 9 9 9 10 10 10 10 10 10 10 10 10 10 10 10 10 10 10 10 10 10 10 10 10 9 9 9 9
10 10 10 10 10 10 10 10 9 9 9 9 9 9 9 9 9 9 9 10 10 10 10 10 10 10 10 10 10 10 10 10 10 10 10 10 10 10 9 9 9 9
10 10 10 10 10 10 10 10 10 9 9 9 9 9 9 9 9 9 9 9 9 9 10 10 10 10 10 10 10 10 9 9 10 10 10 10 9 9 9 9 9 9
10 9 9 9 9 10 10 10 10 10 9 9 9 9 9 9 9 9 9 9 9 9 9 9 9 9 10 10 10 9 9 9 9 9 10 10 10 9 9 9 9 9
9 9 9 9 9 9 9 9 9 9 9 9 9 9 9 9 9 9 9 9 9 9 9 9 9 9 9 9 9 9 9 9 9 9 9 10 10 10 10 9 9 9
9 9 9 9 8 8 8 8 9 9 9 9 9 9 9 9 9 9 9 9 9 9 9 9 9 9 9 9 9 9 9 9 9 9 9 9 9 9 9 9 9 9
9 9 9 8 8 8 8 8 8 8 9 9 9 9 9 9 9 9 9 9 9 9 9 9 9 9 9 9 9 9 9 9 9 8 8 9 9 9 9 9 9 9
9 9 8 8 8 8 8 8 8 8 8 9 9 9 9 9 9 9 9 9 9 9 9 9 9 9 9 9 9 8 8 8 8 8 8 9 9 9 9 9 9 9
8 8 8 9 9 9 9 9 9 9 9 9 9 9 9 9 9 9 9 9 9 9 9 9 9 9 9 9 9 8 8 8 8 9 9 9 9 9 9 8 8 8
Height
3172 3172 3172 3173 3174 3174 3176 3177 3178 3179 3181 3182 3184 3185 3186 3188 3190 3192 3193 3195 3196 3198 3200 3201 3202 3203 3203 3204 3205 3205 3206 3207 3207 3208 3208 3208 3209 3209 3209 3209 3208 3208
3171 3171 3172 3172 3173 3174 3175 3176 3177 3178 3179 3181 3183 3184 3185 3186 3188 3190 3191 3193 3195 3197 3199 3200 3201 3201 3202 3203 3203 3204 3205 3206 3206 3206 3207 3207 3208 3208 3208 3208 3208 3208
3170 3171 3171 3172 3172 3173 3174 3175 3176 3177 3178 3179 3181 3182 3184 3185 3186 3188 3190 3192 3193 3195 3197 3198 3199 3200 3201 3201 3202 3203 3204 3204 3205 3205 3206 3206 3207 3207 3207 3207 3207 3207
3169 3170 3171 3171 3172 3173 3173 3174 3175 3176 3177 3178 3180 3181 3183 3184 3186 3187 3189 3190 3192 3194 3195 3196 3197 3198 3199 3200 3200 3201 3202 3203 3203 3204 3204 3205 3206 3206 3206 3206 3206 3206
3169 3169 3170 3170 3171 3172 3173 3174 3175 3175 3176 3178 3179 3180 3182 3183 3185 3186 3188 3189 3191 3192 3193 3194 3196 3197 3197 3198 3199 3200 3201 3201 3202 3202 3203 3204 3204 3204 3205 3205 3205 3205
3168 3169 3170 3170 3170 3171 3172 3173 3174 3175 3176 3177 3177 3179 3180 3182 3184 3186 3187 3188 3189 3191 3192 3193 3194 3195 3196 3197 3198 3198 3199 3200 3200 3200 3201 3202 3202 3203 3203 3203 3203 3204
3167 3168 3169 3169 3170 3170 3171 3172 3173 3174 3175 3175 3176 3178 3179 3181 3183 3184 3186 3187 3188 3189 3190 3191 3192 3193 3194 3195 3196 3197 3197 3198 3199 3199 3200 3200 3201 3201 3201 3202 3202 3202
3166 3167 3167 3168 3168 3169 3170 3171 3172 3173 3173 3174 3175 3176 3178 3179 3181 3183 3185 3186 3187 3188 3189 3190 3191 3192 3193 3193 3194 3195 3195 3196 3197 3197 3198 3199 3199 3199 3200 3200 3200 3201
3164 3165 3166 3167 3167 3168 3169 3170 3171 3172 3172 3173 3174 3175 3176 3178 3179 3181 3182 3184 3185 3187 3188 3189 3190 3191 3191 3192 3192 3193 3194 3194 3195 3195 3196 3197 3197 3198 3198 3198 3198 3199
3162 3163 3164 3165 3166 3166 3167 3168 3169 3170 3171 3172 3173 3174 3175 3176 3178 3179 3180 3181 3183 3185 3186 3188 3189 3189 3190 3191 3191 3192 3192 3193 3193 3194 3194 3195 3195 3196 3196 3196 3196 3197
3160 3161 3161 3162 3163 3164 3165 3166 3167 3168 3169 3170 3172 3173 3174 3175 3176 3178 3179 3180 3181 3183 3184 3185 3186 3187 3188 3189 3190 3190 3191 3191 3192 3192 3193 3193 3193 3194 3194 3194 3194 3195
3158 3158 3159 3159 3160 3161 3162 3163 3164 3166 3167 3168 3169 3171 3172 3173 3175 3176 3178 3179 3180 3181 3182 3183 3184 3185 3186 3187 3187 3188 3189 3189 3190 3190 3191 3191 3191 3192 3192 3192 3193 3193
3156 3156 3156 3156 3157 3158 3160 3161 3162 3164 3165 3166 3167 3168 3170 3171 3172 3174 3175 3177 3178 3179 3180 3181 3182 3183 3184 3184 3185 3186 3187 3187 3188 3188 3189 3189 3190 3190 3190 3190 3191 3191
3154 3154 3154 3154 3155 3157 3158 3159 3161 3162 3163 3165 3166 3166 3167 3168 3170 3171 3172 3174 3176 3177 3178 3179 3179 3180 3181 3182 3183 3184 3184 3185 3185 3186 3187 3187 3187 3188 3188 3189 3189 3189
3151 3151 3152 3152 3153 3155 3156 3157 3158 3159 3160 3162 3163 3164 3165 3166 3167 3168 3170 3171 3173 3174 3175 3176 3177 3178 3179 3180 3181 3182 3182 3183 3183 3184 3184 3185 3185 3186 3186 3187 3187 3187
3149 3149 3150 3150 3151 3153 3154 3154 3155 3156 3157 3159 3160 3161 3163 3164 3165 3166 3167 3168 3170 3171 3172 3173 3174 3176 3177 3178 3179 3179 3180 3180 3181 3181 3182 3182 3183 3183 3184 3184 3185 3185
3147 3147 3148 3148 3150 3151 3151 3151 3152 3153 3154 3156 3157 3158 3159 3160 3161 3163 3164 3165 3166 3168 3169 3170 3171 3173 3174 3175 3176 3176 3177 3177 3178 3179 3179 3180 3180 3181 3181 3182 3182 3183
3144 3145 3145 3146 3147 3148 3148 3148 3149 3150 3151 3153 3154 3155 3156 3157 3158 3159 3160 3162 3163 3164 3166 3167 3168 3170 3171 3172 3172 3173 3174 3174 3175 3175 3176 3177 3178 3178 3179 3179 3180 3180
3141 3142 3143 3143 3144 3145 3145 3146 3147 3148 3149 3150 3151 3152 3153 3154 3155 3156 3157 3158 3159 3161 3162 3164 3165 3166 3167 3168 3169 3170 3170 3171 3171 3172 3172 3173 3174 3175 3176 3176 3177 3177
3138 3139 3140 3141 3142 3142 3142 3143 3144 3145 3146 3147 3147 3148 3149 3150 3151 3153 3154 3155 3156 3157 3159 3160 3162 3163 3164 3164 3165 3166 3167 3167 3167 3168 3169 3170 3171 3172 3172 3173 3173 3174
3136 3136 3137 3138 3138 3139 3140 3140 3141 3142 3143 3144 3144 3145 3145 3146 3147 3149 3150 3151 3152 3153 3155 3156 3158 3159 3160 3161 3162 3163 3163 3164 3164 3164 3165 3166 3167 3168 3169 3169 3170 3170
3134 3134 3134 3135 3135 3136 3136 3137 3138 3138 3139 3140 3141 3141 3142 3143 3144 3145 3146 3147 3149 3150 3151 3153 3155 3156 3156 3158 3159 3159 3160 3160 3161 3161 3162 3163 3164 3165 3165 3166 3166 3166
3131 3131 3132 3132 3132 3133 3133 3134 3134 3135 3135 3136 3136 3137 3139 3139 3140 3141 3142 3143 3144 3145 3147 3149 3151 3152 3153 3154 3155 3155 3156 3157 3157 3158 3158 3159 3160 3162 3162 3162 3162 3163
3129 3129 3129 3129 3130 3130 3130 3131 3131 3132 3132 3132 3132 3133 3135 3136 3137 3137 3138 3139 3140 3141 3143 3145 3146 3148 3149 3150 3151 3151 3152 3153 3154 3154 3155 3155 3157 3158 3158 3158 3159 3159
3127 3127 3127 3127 3127 3127 3127 3127 3128 3129 3129 3129 3129 3130 3131 3132 3133 3133 3134 3135 3136 3138 3139 3141 3142 3144 3145 3145 3146 3147 3147 3148 3149 3150 3151 3152 3153 3153 3154 3155 3156 3157
3126 3126 3125 3124 3124 3124 3124 3124 3124 3125 3125 3126 3126 3127 3127 3128 3128 3129 3130 3131 3133 3134 3136 3137 3138 3139 3140 3141 3142 3142 3143 3143 3144 3146 3147 3148 3149 3150 3150 3150 3151 3153
Wind_Speed
8 8 9 10 11 11 11 13 15 18 21 21 21 22 23 23 22 21 19 17 17 18 18 17 16 16 15 16 16 16 16 16 15 15 14 12 11 11 11 10 9 9
8 9 9 9 10 11 11 13 15 17 20 20 20 22 22 22 22 21 19 18 19 19 19 18 17 16 15 15 16 15 15 16 16 15 14 13 12 12 11 11 10 9
8 9 10 10 11 11 12 13 14 16 18 19 20 21 22 22 22 21 20 20 20 20 19 18 17 16 15 15 15 15 15 16 16 15 14 13 13 12 12 11 10 9
10 10 10 11 11 12 13 14 13 15 17 19 20 21 22 22 22 22 21 21 21 21 20 18 17 16 14 15 15 15 15 15 15 15 14 13 13 13 12 11 10 10
11 11 11 11 12 12 13 14 14 15 16 18 19 21 22 22 22 23 22 22 22 21 20 19 17 15 14 15 16 16 15 15 15 15 15 14 14 13 13 12 11 10
12 12 11 11 12 13 13 14 14 15 16 17 19 21 22 22 23 24 23 22 22 22 21 19 17 15 15 16 16 16 16 16 16 16 15 14 14 14 14 13 12 11
13 13 12 12 12 13 13 14 15 16 16 17 18 20 22 23 24 24 24 23 23 23 22 20 18 17 17 17 17 17 17 17 17 17 16 15 14 15 15 14 13 12
16 15 14 13 13 13 14 15 16 17 17 18 18 20 22 24 24 25 25 25 25 24 23 21 19 18 18 19 19 19 18 18 18 18 17 16 15 16 16 15 14 13
17 16 16 15 14 14 14 14 16 18 19 19 19 20 23 24 25 26 27 27 27 26 24 22 21 20 20 20 20 20 20 19 19 19 18 17 17 17 16 16 15 13
18 17 18 17 15 14 14 15 16 18 20 20 21 22 23 24 26 27 28 29 28 27 25 24 23 22 21 21 21 20 20 20 20 20 19 19 18 18 17 17 16 14
18 18 19 19 17 17 17 17 18 19 21 22 22 23 24 26 27 28 29 29 28 28 26 25 24 24 23 22 22 21 21 21 22 21 21 20 19 19 19 18 17 16
18 18 20 21 20 20 20 21 21 21 22 23 24 24 25 27 27 28 28 29 28 28 27 27 26 25 24 24 23 22 22 22 22 22 22 22 20 20 20 20 18 17
18 19 21 22 22 22 22 23 23 22 23 24 24 25 26 27 28 29 29 29 29 29 28 28 28 27 25 25 25 24 23 23 23 23 23 22 22 21 21 21 20 19
20 19 21 24 24 23 23 24 23 23 23 24 25 26 27 28 29 29 30 30 30 30 29 29 30 29 27 27 26 25 25 24 24 24 24 24 23 22 22 22 21 20
23 22 22 24 25 26 25 24 24 24 24 25 26 27 27 28 29 29 30 30 30 30 30 31 31 30 29 28 28 27 26 25 25 25 25 25 24 24 23 23 22 21
24 24 23 24 24 25 26 27 27 26 25 26 27 28 27 27 28 29 30 30 30 31 31 31 32 31 29 29 29 28 27 26 26 26 27 26 26 25 24 24 23 22
22 24 25 25 24 24 26 27 29 29 28 27 28 29 28 28 28 29 29 30 30 31 31 32 32 31 30 30 30 29 28 27 27 28 28 28 27 27 25 25 24 24
20 22 24 25 26 26 26 27 28 29 29 29 30 30 30 30 30 29 30 30 31 31 32 32 32 31 31 31 31 30 30 29 29 29 29 29 29 28 27 26 26 26
16 19 22 24 25 27 27 28 28 28 29 30 31 31 32 32 32 31 31 31 31 32 32 33 33 32 32 31 31 31 31 31 31 31 31 30 30 29 29 28 28 28
15 16 18 21 23 25 27 28 28 28 28 29 30 32 32 33 34 34 34 33 33 33 34 34 34 33 33 33 33 32 32 32 33 33 33 32 31 31 30 30 30 30
16 15 15 17 19 22 24 26 27 28 28 29 29 31 31 32 33 34 35 35 35 35 35 35 35 34 34 34 34 34 34 34 35 35 35 34 33 32 32 32 32 32
17 16 16 16 17 18 21 23 25 26 27 29 29 30 31 32 32 33 34 36 37 37 37 36 35 35 35 35 35 35 35 35 36 36 36 36 34 34 34 33 33 33
18 18 18 18 18 18 19 20 21 23 25 27 28 29 30 32 32 33 34 36 38 39 39 37 36 36 36 36 36 36 36 37 37 37 37 37 36 35 34 35 34 34
18 19 19 19 20 20 21 21 21 22 23 25 26 27 28 29 31 33 34 35 37 39 40 40 38 38 37 37 37 37 37 38 38 39 39 38 37 36 36 37 36 35
17 18 19 20 21 21 22 22 23 23 23 24 25 26 26 27 28 30 32 33 34 36 37 39 40 40 40 39 39 39 39 39 39 40 40 40 40 39 39 39 38 37
15 16 18 19 20 21 22 23 24 24 24 24 25 26 27 27 27 28 30 31 32 32 33 35 37 39 40 41 42 42 42 42 42 42 42 41 41 40 41 42 40 38
Wind_Direction
264 262 256 247 241 240 236 227 219 216 216 216 212 209 208 209 210 209 207 206 210 215 219 225 234 242 247 248 250 251 249 246 247 251 255 258 263 268 272 277 281 282
265 261 256 247 240 240 238 230 223 218 217 217 213 207 205 205 206 205 203 206 210 214 220 227 236 245 250 249 249 249 246 244 245 248 252 256 260 266 270 273 276 277
269 264 254 247 243 243 240 235 230 223 218 215 211 207 205 205 205 203 203 207 212 215 220 228 237 246 250 248 246 244 243 243 244 247 252 257 261 265 267 268 271 273
263 264 256 248 244 244 243 240 236 229 222 216 212 208 207 207 206 204 205 209 212 215 220 228 237 244 246 244 243 242 242 243 244 248 253 257 260 262 264 267 269 269
260 261 257 251 246 245 245 242 239 233 225 220 215 210 208 209 209 208 209 212 214 216 222 229 235 240 241 241 242 241 242 242 243 247 251 254 255 257 260 263 265 265
260 259 257 254 249 246 246 243 241 237 229 223 219 214 211 211 212 213 215 217 218 220 225 230 234 236 238 239 240 240 240 241 243 245 249 251 252 253 256 259 259 261
258 254 252 252 250 247 245 243 240 238 234 228 222 217 215 214 216 217 220 222 222 224 228 232 234 234 236 237 238 238 239 241 242 245 248 249 251 252 254 257 259 262
257 251 246 245 246 247 246 244 239 235 233 231 226 220 218 218 219 221 223 224 226 227 231 235 237 238 238 239 239 239 238 240 241 244 247 248 249 250 252 256 260 264
253 249 243 239 241 243 244 246 242 236 231 230 229 226 223 222 222 223 225 226 227 229 233 237 241 243 244 245 245 243 242 242 243 245 247 248 249 250 252 255 260 264
248 246 240 237 238 238 238 240 241 238 233 230 230 231 229 227 226 226 226 227 227 229 233 238 242 244 246 248 249 248 247 247 247 247 247 249 251 252 254 256 260 264
246 243 239 236 234 234 235 235 237 237 234 231 231 232 232 231 230 230 229 229 229 230 233 236 239 242 245 247 249 249 249 248 249 249 249 250 251 253 256 258 260 263
247 243 239 236 231 230 231 233 234 235 234 232 231 231 232 232 232 233 233 233 232 232 234 236 237 240 244 246 249 250 250 249 249 249 250 251 252 253 256 259 261 262
247 241 239 237 234 231 230 232 233 233 234 234 233 231 231 231 232 233 235 235 235 235 235 236 237 239 242 244 247 250 251 250 249 249 250 252 253 253 255 259 262 262
245 243 240 239 239 238 236 235 234 234 234 235 235 233 231 231 232 233 234 235 236 236 236 237 237 238 240 242 244 246 248 249 250 250 250 252 254 254 255 259 261 262
243 244 243 241 241 242 241 239 237 237 236 234 234 234 233 232 232 233 235 236 236 237 238 238 238 238 240 241 243 245 246 247 248 249 250 252 254 255 256 258 260 261
242 243 243 242 241 242 243 241 240 240 240 236 234 234 234 234 234 235 236 236 237 238 238 239 239 240 241 242 243 246 247 247 247 248 249 250 252 254 255 257 260 262
242 242 242 243 243 243 243 242 241 241 242 240 237 236 236 235 236 236 237 237 238 238 238 239 240 242 244 244 244 246 247 248 248 247 247 248 250 252 254 256 258 260
242 242 242 243 244 245 245 244 242 242 244 244 243 242 239 238 238 238 238 238 239 239 239 239 240 242 244 245 245 247 247 247 247 248 247 248 249 251 253 255 256 258
250 245 243 243 243 244 245 245 243 243 244 245 246 246 244 242 241 241 240 241 241 240 240 240 240 240 241 243 245 247 248 248 247 248 248 249 250 251 252 254 255 256
264 257 252 248 246 246 247 247 246 245 244 244 245 246 246 245 244 243 243 243 243 242 242 242 242 241 240 241 243 245 247 249 249 248 248 249 250 250 252 253 254 255
269 267 263 258 254 251 250 250 251 250 249 247 246 246 247 247 246 246 245 244 244 245 244 244 244 244 243 243 244 245 245 246 248 249 249 249 249 249 250 251 253 254
269 268 266 264 262 258 255 253 253 253 252 251 249 248 248 248 249 249 247 246 245 246 246 246 246 245 245 246 247 248 247 246 247 249 251 251 250 250 250 251 253 255
268 267 265 264 263 262 261 259 256 255 254 254 252 250 248 249 250 250 250 249 248 247 247 248 247 247 247 247 249 250 250 250 249 249 250 251 252 253 254 253 254 255
268 268 267 266 264 264 263 262 261 258 256 256 255 254 252 250 249 250 250 250 250 249 249 249 249 249 249 249 250 251 251 251 251 251 251 251 252 253 253 254 254 253
272 272 272 271 270 268 266 265 263 262 260 257 257 257 256 254 252 251 251 251 251 252 251 251 251 251 252 253 253 253 253 253 253 252 252 252 253 253 255 255 255 255
280 280 279 278 277 275 273 271 268 266 264 261 259 258 257 257 256 255 254 254 254 254 254 253 253 253 254 255 255 255 255 255 254 254 254 254 255 257 259 258 256 256